Hourly Data Report for October 09, 2020

MUSKOKA
ONTARIO
Current Station Operator: NAVCAN

44°58'29.000" N
79°18'12.000" W
281.90 m
6115529
71532
YQA

Download Data

Hourly Data (October 2020)
Hourly Data Report for October 9, 2020
TIME Temp Definition
°C
Dew Point Definition
°C
Rel Hum Definition
%
Wind Dir Definition
10's deg

Wind Spd Definition
km/h
Visibility Definition
km
Stn Press Definition
kPa
Hmdx Definition


Wind Chill Definition


Weather Definition


00:00 0.5 0.4 99   0 16.1 98.58     LegendNANA
01:00 -0.3 -0.4 99   0 16.1 98.59     LegendNANA
02:00 -0.1 -0.2 99 11 5 16.1 98.62   -2 LegendNANA
03:00 -0.1 -0.2 99 16 4 0.8 98.63   -1 Freezing Fog
04:00 1.0 0.9 99 12 4 0.6 98.61     Fog
05:00 -0.6 -0.7 99 LegendMM 4 0.8 98.65   -2 Freezing Fog
06:00 -1.0 -1.1 99 LegendMM 4 4.8 98.66   -2 Fog
07:00 0.2 0.1 99 11 4 16.1 98.66     LegendNANA
08:00 5.5 5.5 100 17 9 16.1 98.65     LegendNANA
09:00 8.8 6.8 87 18 11 16.1 98.64     LegendNANA
10:00 10.6 6.9 78 19 15 16.1 98.62     LegendNANA
11:00 12.1 5.5 64 20 21 16.1 98.57     LegendNANA
12:00 12.0 5.7 65 24 9 16.1 98.51     Rain
13:00 11.8 5.2 64 16 11 16.1 98.32     LegendNANA
14:00 12.3 5.5 63 16 15 16.1 98.15     LegendNANA
15:00 12.9 6.2 64 16 18 16.1 98.03     LegendNANA
16:00 13.3 6.6 64 16 13 16.1 97.94     LegendNANA
17:00 13.2 7.0 66 14 15 16.1 97.84     LegendNANA
18:00 11.8 6.5 70 14 15 16.1 97.72     LegendNANA
19:00 11.6 7.4 75 14 18 16.1 97.60     LegendNANA
20:00 11.9 8.2 78 15 18 16.1 97.53     LegendNANA
21:00 12.7 9.0 78 16 18 16.1 97.46     LegendNANA
22:00 13.2 9.1 76 16 17 16.1 97.37     LegendNANA
23:00 14.2 9.3 72 16 17 16.1 97.30     LegendNANA

Notes on Data Quality.

Legend

  • E = Estimated
  • M = Missing
  • NA = Not Available*
  • [empty] = Indicates an unobserved value
Date modified: